#datetime,building,power
2023-12-12T00:01:00,pth,2.40
2023-12-12T00:03:00,pth,3.60
2023-12-12T00:04:00,pth,1.20
2023-12-12T00:06:00,pth,2.40
2023-12-12T00:08:00,pth,2.40
2023-12-12T00:09:00,pth,2.40
2023-12-12T00:10:00,pth,1.20
2023-12-12T00:12:00,pth,2.40
2023-12-12T00:13:00,pth,1.20
2023-12-12T00:15:00,pth,3.60
2023-12-12T00:17:00,pth,2.40
2023-12-12T00:19:00,pth,2.40
2023-12-12T00:20:00,pth,1.20
2023-12-12T00:21:00,pth,1.20
2023-12-12T00:22:00,pth,1.20
2023-12-12T00:24:00,pth,2.40
2023-12-12T00:26:00,pth,3.60
2023-12-12T00:28:00,pth,2.40
2023-12-12T00:30:00,pth,3.60
2023-12-12T00:33:00,pth,3.60
2023-12-12T00:35:00,pth,2.40
2023-12-12T00:36:00,pth,1.20
2023-12-12T00:38:00,pth,3.60
2023-12-12T00:40:00,pth,3.60
2023-12-12T00:42:00,pth,2.40
2023-12-12T00:43:00,pth,1.20
2023-12-12T00:44:00,pth,1.20
2023-12-12T00:46:00,pth,2.40
2023-12-12T00:48:00,pth,2.40
2023-12-12T00:50:00,pth,2.40
2023-12-12T00:52:00,pth,2.40
2023-12-12T00:54:00,pth,2.40
2023-12-12T00:55:00,pth,1.20
2023-12-12T00:57:00,pth,3.60
2023-12-12T00:59:00,pth,2.40
2023-12-12T01:00:00,pth,1.20
2023-12-12T01:02:00,pth,2.40
2023-12-12T01:03:00,pth,1.20
2023-12-12T01:04:00,pth,1.20
2023-12-12T01:06:00,pth,2.40
2023-12-12T01:08:00,pth,2.40
2023-12-12T01:09:00,pth,1.20
2023-12-12T01:11:00,pth,2.40
2023-12-12T01:12:00,pth,1.20
2023-12-12T01:14:00,pth,2.40
2023-12-12T01:17:00,pth,2.40
2023-12-12T01:18:00,pth,1.20
2023-12-12T01:20:00,pth,2.40
2023-12-12T01:22:00,pth,2.40
2023-12-12T01:23:00,pth,1.20
2023-12-12T01:24:00,pth,1.20
2023-12-12T01:26:00,pth,2.40
2023-12-12T01:28:00,pth,2.40
2023-12-12T01:30:00,pth,2.40
2023-12-12T01:32:00,pth,3.60
2023-12-12T01:33:00,pth,1.20
2023-12-12T01:35:00,pth,2.40
2023-12-12T01:37:00,pth,2.40
2023-12-12T01:39:00,pth,2.40
2023-12-12T01:41:00,pth,2.40
2023-12-12T01:43:00,pth,2.40
2023-12-12T01:45:00,pth,2.40
2023-12-12T01:47:00,pth,2.40
2023-12-12T01:49:00,pth,2.40
2023-12-12T01:50:00,pth,1.20
2023-12-12T01:52:00,pth,2.40
2023-12-12T01:53:00,pth,2.40
2023-12-12T01:56:00,pth,2.40
2023-12-12T01:58:00,pth,2.40
2023-12-12T01:59:00,pth,1.20
2023-12-12T02:01:00,pth,2.40
2023-12-12T02:02:00,pth,1.20
2023-12-12T02:04:00,pth,2.40
2023-12-12T02:07:00,pth,3.60
2023-12-12T02:08:00,pth,1.20
2023-12-12T02:09:00,pth,1.20
2023-12-12T02:11:00,pth,2.40
2023-12-12T02:12:00,pth,1.20
2023-12-12T02:13:00,pth,1.20
2023-12-12T02:15:00,pth,2.40
2023-12-12T02:16:00,pth,1.20
2023-12-12T02:18:00,pth,2.40
2023-12-12T02:20:00,pth,2.40
2023-12-12T02:21:00,pth,1.20
2023-12-12T02:22:00,pth,1.20
2023-12-12T02:23:00,pth,1.20
2023-12-12T02:24:00,pth,2.40
2023-12-12T02:26:00,pth,1.20
2023-12-12T02:27:00,pth,2.40
2023-12-12T02:29:00,pth,2.40
2023-12-12T02:31:00,pth,2.40
2023-12-12T02:32:00,pth,1.20
2023-12-12T02:33:00,pth,1.20
2023-12-12T02:35:00,pth,2.40
2023-12-12T02:36:00,pth,1.20
2023-12-12T02:37:00,pth,1.20
2023-12-12T02:39:00,pth,2.40
2023-12-12T02:40:00,pth,1.20
2023-12-12T02:42:00,pth,3.60
2023-12-12T02:43:00,pth,1.20
2023-12-12T02:45:00,pth,2.40
2023-12-12T02:46:00,pth,1.20
2023-12-12T02:47:00,pth,1.20
2023-12-12T02:49:00,pth,2.40
2023-12-12T02:50:00,pth,1.20
2023-12-12T02:52:00,pth,2.40
2023-12-12T02:54:00,pth,3.60
2023-12-12T02:55:00,pth,1.20
2023-12-12T02:57:00,pth,2.40
2023-12-12T02:59:00,pth,2.40
2023-12-12T03:01:00,pth,2.40
2023-12-12T03:02:00,pth,1.20
2023-12-12T03:04:00,pth,2.40
2023-12-12T03:05:00,pth,1.20
2023-12-12T03:07:00,pth,2.40
2023-12-12T03:09:00,pth,1.20
2023-12-12T03:11:00,pth,2.40
2023-12-12T03:13:00,pth,2.40
2023-12-12T03:14:00,pth,1.20
2023-12-12T03:15:00,pth,1.20
2023-12-12T03:17:00,pth,1.20
2023-12-12T03:18:00,pth,1.20
2023-12-12T03:20:00,pth,2.40
2023-12-12T03:22:00,pth,2.40
2023-12-12T03:23:00,pth,1.20
2023-12-12T03:25:00,pth,2.40
2023-12-12T03:27:00,pth,1.20
2023-12-12T03:28:00,pth,2.40
2023-12-12T03:30:00,pth,1.20
2023-12-12T03:32:00,pth,2.40
2023-12-12T03:34:00,pth,2.40
2023-12-12T03:36:00,pth,1.20
2023-12-12T03:38:00,pth,2.40
2023-12-12T03:39:00,pth,1.20
2023-12-12T03:40:00,pth,2.40
2023-12-12T03:42:00,pth,1.20
2023-12-12T03:44:00,pth,1.20
2023-12-12T03:45:00,pth,1.20
2023-12-12T03:46:00,pth,2.40
2023-12-12T03:49:00,pth,2.40
2023-12-12T03:51:00,pth,1.20
2023-12-12T03:52:00,pth,2.40
2023-12-12T03:55:00,pth,1.20
2023-12-12T03:57:00,pth,2.40
2023-12-12T03:58:00,pth,2.40
2023-12-12T04:00:00,pth,1.20
2023-12-12T04:02:00,pth,1.20
2023-12-12T04:03:00,pth,1.20
2023-12-12T04:04:00,pth,1.20
2023-12-12T04:06:00,pth,1.20
2023-12-12T04:08:00,pth,2.40
2023-12-12T04:10:00,pth,2.40
2023-12-12T04:12:00,pth,2.40
2023-12-12T04:13:00,pth,1.20
2023-12-12T04:14:00,pth,1.20
2023-12-12T04:15:00,pth,1.20
2023-12-12T04:17:00,pth,1.20
2023-12-12T04:19:00,pth,2.40
2023-12-12T04:20:00,pth,1.20
2023-12-12T04:22:00,pth,2.40
2023-12-12T04:24:00,pth,2.40
2023-12-12T04:26:00,pth,2.40
2023-12-12T04:28:00,pth,1.20
2023-12-12T04:29:00,pth,1.20
2023-12-12T04:31:00,pth,2.40
2023-12-12T04:33:00,pth,1.20
2023-12-12T04:34:00,pth,1.20
2023-12-12T04:36:00,pth,2.40
2023-12-12T04:38:00,pth,2.40
2023-12-12T04:40:00,pth,1.20
2023-12-12T04:42:00,pth,2.40
2023-12-12T04:44:00,pth,2.40
2023-12-12T04:45:00,pth,1.20
2023-12-12T04:47:00,pth,2.40
2023-12-12T04:49:00,pth,1.20
2023-12-12T04:51:00,pth,2.40
2023-12-12T04:52:00,pth,1.20
2023-12-12T04:54:00,pth,2.40
2023-12-12T04:55:00,pth,1.20
2023-12-12T04:57:00,pth,2.40
2023-12-12T04:59:00,pth,2.40
2023-12-12T05:01:00,pth,2.40
2023-12-12T05:03:00,pth,2.40
2023-12-12T05:05:00,pth,2.40
2023-12-12T05:07:00,pth,2.40
2023-12-12T05:08:00,pth,1.20
2023-12-12T05:09:00,pth,2.40
2023-12-12T05:12:00,pth,2.40
2023-12-12T05:13:00,pth,1.20
2023-12-12T05:14:00,pth,1.20
2023-12-12T05:17:00,pth,2.40
2023-12-12T05:19:00,pth,2.40
2023-12-12T05:21:00,pth,2.40
2023-12-12T05:22:00,pth,1.20
2023-12-12T05:24:00,pth,2.40
2023-12-12T05:25:00,pth,1.20
2023-12-12T05:27:00,pth,1.20
2023-12-12T05:28:00,pth,1.20
2023-12-12T05:30:00,pth,2.40
2023-12-12T05:31:00,pth,1.20
2023-12-12T05:32:00,pth,1.20
2023-12-12T05:35:00,pth,2.40
2023-12-12T05:37:00,pth,2.40
2023-12-12T05:39:00,pth,1.20
2023-12-12T05:41:00,pth,2.40
2023-12-12T05:42:00,pth,1.20
2023-12-12T05:44:00,pth,2.40
2023-12-12T05:45:00,pth,1.20
2023-12-12T05:46:00,pth,1.20
2023-12-12T05:48:00,pth,1.20
2023-12-12T05:49:00,pth,1.20
2023-12-12T05:50:00,pth,1.20
2023-12-12T05:52:00,pth,2.40
2023-12-12T05:53:00,pth,1.20
2023-12-12T05:55:00,pth,2.40
2023-12-12T05:57:00,pth,1.20
2023-12-12T05:58:00,pth,1.20
2023-12-12T06:00:00,pth,2.40
2023-12-12T06:02:00,pth,1.20
2023-12-12T06:03:00,pth,1.20
2023-12-12T06:05:00,pth,2.40
2023-12-12T06:07:00,pth,2.40
2023-12-12T06:09:00,pth,2.40
2023-12-12T06:12:00,pth,2.40
2023-12-12T06:14:00,pth,2.40
2023-12-12T06:15:00,pth,1.20
2023-12-12T06:17:00,pth,2.40
2023-12-12T06:19:00,pth,2.40
2023-12-12T06:21:00,pth,1.20
2023-12-12T06:23:00,pth,2.40
2023-12-12T06:25:00,pth,2.40
2023-12-12T06:26:00,pth,1.20
2023-12-12T06:27:00,pth,1.20
2023-12-12T06:29:00,pth,2.40
2023-12-12T06:31:00,pth,2.40
2023-12-12T06:32:00,pth,1.20
2023-12-12T06:34:00,pth,2.40
2023-12-12T06:35:00,pth,1.20
2023-12-12T06:37:00,pth,1.20
2023-12-12T06:39:00,pth,2.40
2023-12-12T06:40:00,pth,1.20
2023-12-12T06:41:00,pth,1.20
2023-12-12T06:43:00,pth,2.40
2023-12-12T06:44:00,pth,1.20
2023-12-12T06:46:00,pth,1.20
2023-12-12T06:48:00,pth,2.40
2023-12-12T06:49:00,pth,1.20
2023-12-12T06:50:00,pth,1.20
2023-12-12T06:52:00,pth,2.40
2023-12-12T06:55:00,pth,2.40
2023-12-12T06:56:00,pth,1.20
2023-12-12T06:58:00,pth,2.40
2023-12-12T06:59:00,pth,1.20
2023-12-12T07:01:00,pth,1.20
2023-12-12T07:02:00,pth,1.20
2023-12-12T07:03:00,pth,1.20
2023-12-12T07:05:00,pth,2.40
2023-12-12T07:07:00,pth,2.40
2023-12-12T07:09:00,pth,2.40
2023-12-12T07:10:00,pth,1.20
2023-12-12T07:12:00,pth,1.20
2023-12-12T07:13:00,pth,1.20
2023-12-12T07:15:00,pth,2.40
2023-12-12T07:17:00,pth,3.60
2023-12-12T07:19:00,pth,2.40
2023-12-12T07:21:00,pth,2.40
2023-12-12T07:23:00,pth,3.60
2023-12-12T07:24:00,pth,1.20
2023-12-12T07:26:00,pth,2.40
2023-12-12T07:28:00,pth,2.40
2023-12-12T07:30:00,pth,2.40
2023-12-12T07:32:00,pth,2.40
2023-12-12T07:34:00,pth,2.40
2023-12-12T07:35:00,pth,1.20
2023-12-12T07:36:00,pth,1.20
2023-12-12T07:38:00,pth,1.20
2023-12-12T07:39:00,pth,1.20
2023-12-12T07:41:00,pth,2.40
2023-12-12T07:43:00,pth,1.20
2023-12-12T07:45:00,pth,2.40
2023-12-12T07:47:00,pth,1.20
2023-12-12T07:49:00,pth,1.20
2023-12-12T07:51:00,pth,2.40
2023-12-12T07:54:00,pth,2.40
2023-12-12T07:55:00,pth,1.20
2023-12-12T07:57:00,pth,1.20
2023-12-12T07:59:00,pth,2.40
2023-12-12T08:01:00,pth,2.40
2023-12-12T08:03:00,pth,2.40
2023-12-12T08:05:00,pth,2.40
2023-12-12T08:08:00,pth,2.40
2023-12-12T08:10:00,pth,2.40
2023-12-12T08:11:00,pth,1.20
2023-12-12T08:14:00,pth,2.40
2023-12-12T08:17:00,pth,2.40
2023-12-12T08:20:00,pth,1.20
2023-12-12T08:22:00,pth,2.40
2023-12-12T08:24:00,pth,1.20
2023-12-12T08:26:00,pth,2.40
2023-12-12T08:28:00,pth,2.40
2023-12-12T08:31:00,pth,2.40
2023-12-12T08:34:00,pth,2.40
2023-12-12T08:35:00,pth,1.20
2023-12-12T08:37:00,pth,1.20
2023-12-12T08:38:00,pth,1.20
2023-12-12T08:39:00,pth,1.20
2023-12-12T08:41:00,pth,1.20
2023-12-12T08:42:00,pth,1.20
2023-12-12T08:44:00,pth,2.40
2023-12-12T08:46:00,pth,1.20
2023-12-12T08:48:00,pth,2.40
2023-12-12T08:50:00,pth,1.20
2023-12-12T08:51:00,pth,1.20
2023-12-12T08:53:00,pth,1.20
2023-12-12T08:55:00,pth,2.40
2023-12-12T08:57:00,pth,1.20
2023-12-12T08:59:00,pth,1.20
2023-12-12T09:01:00,pth,1.20
2023-12-12T09:02:00,pth,1.20
2023-12-12T09:05:00,pth,1.20
2023-12-12T09:06:00,pth,1.20
2023-12-12T09:08:00,pth,1.20
2023-12-12T09:10:00,pth,2.40
2023-12-12T09:13:00,pth,1.20
2023-12-12T09:15:00,pth,1.20
2023-12-12T09:16:00,pth,1.20
2023-12-12T09:17:00,pth,1.20
2023-12-12T09:18:00,pth,2.40
2023-12-12T09:20:00,pth,3.60
2023-12-12T09:22:00,pth,1.20
2023-12-12T09:24:00,pth,2.40
2023-12-12T09:26:00,pth,2.40
2023-12-12T09:29:00,pth,2.40
2023-12-12T09:31:00,pth,2.40
2023-12-12T09:32:00,pth,1.20
2023-12-12T09:34:00,pth,1.20
2023-12-12T09:35:00,pth,1.20
2023-12-12T09:36:00,pth,1.20
2023-12-12T09:38:00,pth,2.40
2023-12-12T09:39:00,pth,2.40
2023-12-12T09:40:00,pth,1.20
2023-12-12T09:42:00,pth,3.60
2023-12-12T09:43:00,pth,1.20
2023-12-12T09:45:00,pth,2.40
2023-12-12T09:46:00,pth,1.20
2023-12-12T09:48:00,pth,3.60
2023-12-12T09:49:00,pth,1.20
2023-12-12T09:50:00,pth,1.20
2023-12-12T09:51:00,pth,1.20
2023-12-12T09:53:00,pth,2.40
2023-12-12T09:55:00,pth,2.40
2023-12-12T09:57:00,pth,3.60
2023-12-12T09:58:00,pth,1.20
2023-12-12T09:59:00,pth,1.20
2023-12-12T10:01:00,pth,1.20
2023-12-12T10:03:00,pth,2.40
2023-12-12T10:04:00,pth,1.20
2023-12-12T10:06:00,pth,2.40
2023-12-12T10:08:00,pth,2.40
2023-12-12T10:09:00,pth,1.20
2023-12-12T10:10:00,pth,1.20
2023-12-12T10:12:00,pth,2.40
2023-12-12T10:13:00,pth,3.60
2023-12-12T10:15:00,pth,13.20
2023-12-12T10:17:00,pth,13.20
2023-12-12T10:19:00,pth,14.40
2023-12-12T10:21:00,pth,13.20
2023-12-12T10:23:00,pth,13.20
2023-12-12T10:25:00,pth,13.20
2023-12-12T10:27:00,pth,13.20
2023-12-12T10:28:00,pth,7.20
2023-12-12T10:30:00,pth,14.40
2023-12-12T10:32:00,pth,13.20
2023-12-12T10:34:00,pth,14.40
2023-12-12T10:35:00,pth,7.20
2023-12-12T10:37:00,pth,14.40
2023-12-12T10:38:00,pth,7.20
2023-12-12T10:40:00,pth,13.20
2023-12-12T10:41:00,pth,7.20
2023-12-12T10:43:00,pth,13.20
2023-12-12T10:44:00,pth,7.20
2023-12-12T10:45:00,pth,7.20
2023-12-12T10:47:00,pth,13.20
2023-12-12T10:48:00,pth,7.20
2023-12-12T10:50:00,pth,13.20
2023-12-12T10:52:00,pth,13.20
2023-12-12T10:54:00,pth,14.40
2023-12-12T10:55:00,pth,6.00
2023-12-12T10:57:00,pth,13.20
2023-12-12T10:59:00,pth,13.20
2023-12-12T11:01:00,pth,13.20
2023-12-12T11:03:00,pth,13.20
2023-12-12T11:04:00,pth,7.20
2023-12-12T11:05:00,pth,6.00
2023-12-12T11:06:00,pth,14.40
2023-12-12T11:08:00,pth,7.20
2023-12-12T11:10:00,pth,13.20
2023-12-12T11:11:00,pth,7.20
2023-12-12T11:13:00,pth,4.80
2023-12-12T11:14:00,pth,1.20
2023-12-12T11:16:00,pth,3.60
2023-12-12T11:18:00,pth,2.40
2023-12-12T11:20:00,pth,2.40
2023-12-12T11:22:00,pth,2.40
2023-12-12T11:24:00,pth,1.20
2023-12-12T11:25:00,pth,1.20
2023-12-12T11:27:00,pth,2.40
2023-12-12T11:28:00,pth,1.20
2023-12-12T11:30:00,pth,2.40
2023-12-12T11:32:00,pth,1.20
2023-12-12T11:34:00,pth,2.40
2023-12-12T11:35:00,pth,1.20
2023-12-12T11:37:00,pth,7.20
2023-12-12T11:39:00,pth,13.20
2023-12-12T11:41:00,pth,14.40
2023-12-12T11:43:00,pth,14.40
2023-12-12T11:45:00,pth,16.80
2023-12-12T11:47:00,pth,15.60
2023-12-12T11:49:00,pth,16.80
2023-12-12T11:50:00,pth,8.40
2023-12-12T11:52:00,pth,15.60
2023-12-12T11:54:00,pth,14.40
2023-12-12T11:55:00,pth,7.20
2023-12-12T11:57:00,pth,13.20
2023-12-12T11:58:00,pth,7.20
2023-12-12T12:00:00,pth,13.20
2023-12-12T12:02:00,pth,15.60
2023-12-12T12:04:00,pth,14.40
2023-12-12T12:06:00,pth,13.20
2023-12-12T12:07:00,pth,7.20
2023-12-12T12:08:00,pth,7.20
2023-12-12T12:09:00,pth,7.20
2023-12-12T12:11:00,pth,14.40
2023-12-12T12:12:00,pth,7.20
2023-12-12T12:14:00,pth,14.40
2023-12-12T12:15:00,pth,7.20
2023-12-12T12:16:00,pth,6.00
2023-12-12T12:18:00,pth,14.40
2023-12-12T12:20:00,pth,13.20
2023-12-12T12:22:00,pth,14.40
2023-12-12T12:24:00,pth,14.40
2023-12-12T12:26:00,pth,13.20
2023-12-12T12:27:00,pth,7.20
2023-12-12T12:29:00,pth,14.40
2023-12-12T12:31:00,pth,14.40
2023-12-12T12:32:00,pth,7.20
2023-12-12T12:33:00,pth,8.40
2023-12-12T12:34:00,pth,7.20
2023-12-12T12:35:00,pth,8.40
2023-12-12T12:38:00,pth,2.40
2023-12-12T12:39:00,pth,1.20
2023-12-12T12:40:00,pth,1.20
2023-12-12T12:41:00,pth,2.40
2023-12-12T12:44:00,pth,2.40
2023-12-12T12:45:00,pth,1.20
2023-12-12T12:46:00,pth,1.20
2023-12-12T12:47:00,pth,1.20
2023-12-12T12:49:00,pth,1.20
2023-12-12T12:50:00,pth,1.20
2023-12-12T12:52:00,pth,3.60
2023-12-12T12:53:00,pth,1.20
2023-12-12T12:55:00,pth,2.40
2023-12-12T12:57:00,pth,1.20
2023-12-12T12:59:00,pth,2.40
2023-12-12T13:01:00,pth,2.40
2023-12-12T13:03:00,pth,2.40
2023-12-12T13:06:00,pth,2.40
2023-12-12T13:08:00,pth,2.40
2023-12-12T13:10:00,pth,1.20
2023-12-12T13:12:00,pth,2.40
2023-12-12T13:14:00,pth,2.40
2023-12-12T13:16:00,pth,1.20
2023-12-12T13:18:00,pth,2.40
2023-12-12T13:21:00,pth,2.40
2023-12-12T13:22:00,pth,1.20
2023-12-12T13:24:00,pth,1.20
2023-12-12T13:26:00,pth,2.40
2023-12-12T13:27:00,pth,1.20
2023-12-12T13:29:00,pth,2.40
2023-12-12T13:32:00,pth,2.40
2023-12-12T13:33:00,pth,1.20
2023-12-12T13:35:00,pth,2.40
2023-12-12T13:37:00,pth,1.20
2023-12-12T13:39:00,pth,2.40
2023-12-12T13:41:00,pth,2.40
2023-12-12T13:43:00,pth,1.20
2023-12-12T13:45:00,pth,1.20
2023-12-12T13:47:00,pth,2.40
2023-12-12T13:49:00,pth,2.40
2023-12-12T13:50:00,pth,1.20
2023-12-12T13:52:00,pth,2.40
2023-12-12T13:54:00,pth,1.20
2023-12-12T13:55:00,pth,1.20
2023-12-12T13:57:00,pth,2.40
2023-12-12T13:58:00,pth,1.20
2023-12-12T13:59:00,pth,1.20
2023-12-12T14:01:00,pth,1.20
2023-12-12T14:02:00,pth,1.20
2023-12-12T14:04:00,pth,1.20
2023-12-12T14:05:00,pth,1.20
2023-12-12T14:06:00,pth,1.20
2023-12-12T14:08:00,pth,2.40
2023-12-12T14:10:00,pth,1.20
2023-12-12T14:11:00,pth,1.20
2023-12-12T14:13:00,pth,1.20
2023-12-12T14:15:00,pth,1.20
2023-12-12T14:17:00,pth,2.40
2023-12-12T14:19:00,pth,1.20
2023-12-12T14:20:00,pth,1.20
2023-12-12T14:23:00,pth,1.20
2023-12-12T14:24:00,pth,1.20
2023-12-12T14:26:00,pth,1.20
2023-12-12T14:27:00,pth,1.20
2023-12-12T14:29:00,pth,1.20
2023-12-12T14:30:00,pth,1.20
2023-12-12T14:31:00,pth,1.20
2023-12-12T14:33:00,pth,1.20
2023-12-12T14:34:00,pth,1.20
2023-12-12T14:36:00,pth,2.40
2023-12-12T14:37:00,pth,1.20
2023-12-12T14:39:00,pth,2.40
2023-12-12T14:41:00,pth,12.00
2023-12-12T14:43:00,pth,13.20
2023-12-12T14:45:00,pth,14.40
2023-12-12T14:46:00,pth,6.00
2023-12-12T14:48:00,pth,13.20
2023-12-12T14:50:00,pth,13.20
2023-12-12T14:51:00,pth,7.20
2023-12-12T14:52:00,pth,12.00
2023-12-12T14:55:00,pth,13.20
2023-12-12T14:57:00,pth,14.40
2023-12-12T14:59:00,pth,14.40
2023-12-12T15:01:00,pth,13.20
2023-12-12T15:03:00,pth,14.40
2023-12-12T15:05:00,pth,13.20
2023-12-12T15:07:00,pth,14.40
2023-12-12T15:09:00,pth,13.20
2023-12-12T15:10:00,pth,6.00
2023-12-12T15:12:00,pth,13.20
2023-12-12T15:14:00,pth,14.40
2023-12-12T15:16:00,pth,13.20
2023-12-12T15:18:00,pth,14.40
2023-12-12T15:19:00,pth,7.20
2023-12-12T15:21:00,pth,13.20
2023-12-12T15:23:00,pth,13.20
2023-12-12T15:25:00,pth,18.00
2023-12-12T15:26:00,pth,7.20
2023-12-12T15:28:00,pth,14.40
2023-12-12T15:29:00,pth,6.00
2023-12-12T15:31:00,pth,13.20
2023-12-12T15:32:00,pth,7.20
2023-12-12T15:33:00,pth,6.00
2023-12-12T15:35:00,pth,13.20
2023-12-12T15:36:00,pth,7.20
2023-12-12T15:38:00,pth,13.20
2023-12-12T15:39:00,pth,2.40
2023-12-12T15:41:00,pth,2.40
2023-12-12T15:43:00,pth,1.20
2023-12-12T15:45:00,pth,2.40
2023-12-12T15:47:00,pth,2.40
2023-12-12T15:49:00,pth,2.40
2023-12-12T15:50:00,pth,1.20
2023-12-12T15:52:00,pth,2.40
2023-12-12T15:54:00,pth,1.20
2023-12-12T15:56:00,pth,2.40
2023-12-12T15:58:00,pth,2.40
2023-12-12T16:00:00,pth,3.60
2023-12-12T16:02:00,pth,1.20
2023-12-12T16:03:00,pth,1.20
2023-12-12T16:04:00,pth,1.20
2023-12-12T16:06:00,pth,2.40
2023-12-12T16:07:00,pth,1.20
2023-12-12T16:08:00,pth,1.20
2023-12-12T16:10:00,pth,1.20
2023-12-12T16:12:00,pth,2.40
2023-12-12T16:14:00,pth,2.40
2023-12-12T16:16:00,pth,2.40
2023-12-12T16:18:00,pth,3.60
2023-12-12T16:20:00,pth,2.40
2023-12-12T16:21:00,pth,3.60
2023-12-12T16:23:00,pth,1.20
2023-12-12T16:24:00,pth,1.20
2023-12-12T16:26:00,pth,1.20
2023-12-12T16:27:00,pth,1.20
2023-12-12T16:29:00,pth,2.40
2023-12-12T16:30:00,pth,1.20
2023-12-12T16:32:00,pth,2.40
2023-12-12T16:34:00,pth,1.20
2023-12-12T16:36:00,pth,2.40
2023-12-12T16:38:00,pth,2.40
2023-12-12T16:40:00,pth,3.60
2023-12-12T16:41:00,pth,1.20
2023-12-12T16:43:00,pth,2.40
2023-12-12T16:44:00,pth,1.20
2023-12-12T16:46:00,pth,9.60
2023-12-12T16:48:00,pth,14.40
2023-12-12T16:49:00,pth,7.20
2023-12-12T16:51:00,pth,13.20
2023-12-12T16:52:00,pth,7.20
2023-12-12T16:54:00,pth,13.20
2023-12-12T16:55:00,pth,7.20
2023-12-12T16:57:00,pth,13.20
2023-12-12T16:58:00,pth,6.00
2023-12-12T17:00:00,pth,14.40
2023-12-12T17:02:00,pth,13.20
2023-12-12T17:04:00,pth,13.20
2023-12-12T17:05:00,pth,7.20
2023-12-12T17:07:00,pth,13.20
2023-12-12T17:09:00,pth,14.40
2023-12-12T17:11:00,pth,13.20
2023-12-12T17:13:00,pth,14.40
2023-12-12T17:14:00,pth,7.20
2023-12-12T17:16:00,pth,13.20
2023-12-12T17:18:00,pth,14.40
2023-12-12T17:19:00,pth,7.20
2023-12-12T17:21:00,pth,13.20
2023-12-12T17:23:00,pth,13.20
2023-12-12T17:25:00,pth,13.20
2023-12-12T17:26:00,pth,6.00
2023-12-12T17:28:00,pth,14.40
2023-12-12T17:30:00,pth,12.00
2023-12-12T17:31:00,pth,1.20
2023-12-12T17:32:00,pth,2.40
2023-12-12T17:34:00,pth,12.00
2023-12-12T17:36:00,pth,14.40
2023-12-12T17:38:00,pth,13.20
2023-12-12T17:40:00,pth,12.00
2023-12-12T17:42:00,pth,2.40
2023-12-12T17:44:00,pth,9.60
2023-12-12T17:46:00,pth,2.40
2023-12-12T17:47:00,pth,1.20
2023-12-12T17:49:00,pth,3.60
2023-12-12T17:51:00,pth,2.40
2023-12-12T17:53:00,pth,2.40
2023-12-12T17:56:00,pth,2.40
2023-12-12T17:58:00,pth,3.60
2023-12-12T18:00:00,pth,2.40
2023-12-12T18:01:00,pth,1.20
2023-12-12T18:03:00,pth,2.40
2023-12-12T18:04:00,pth,1.20
2023-12-12T18:06:00,pth,2.40
2023-12-12T18:08:00,pth,2.40
2023-12-12T18:10:00,pth,2.40
2023-12-12T18:11:00,pth,1.20
2023-12-12T18:13:00,pth,2.40
2023-12-12T18:14:00,pth,1.20
2023-12-12T18:15:00,pth,1.20
2023-12-12T18:17:00,pth,2.40
2023-12-12T18:19:00,pth,3.60
2023-12-12T18:21:00,pth,2.40
2023-12-12T18:22:00,pth,1.20
2023-12-12T18:24:00,pth,2.40
2023-12-12T18:26:00,pth,2.40
2023-12-12T18:28:00,pth,2.40
2023-12-12T18:30:00,pth,3.60
2023-12-12T18:32:00,pth,3.60
2023-12-12T18:33:00,pth,1.20
2023-12-12T18:34:00,pth,1.20
2023-12-12T18:36:00,pth,3.60
2023-12-12T18:37:00,pth,1.20
2023-12-12T18:39:00,pth,2.40
2023-12-12T18:40:00,pth,1.20
2023-12-12T18:42:00,pth,3.60
2023-12-12T18:44:00,pth,2.40
2023-12-12T18:46:00,pth,3.60
2023-12-12T18:48:00,pth,3.60
2023-12-12T18:50:00,pth,2.40
2023-12-12T18:51:00,pth,2.40
2023-12-12T18:52:00,pth,1.20
2023-12-12T18:54:00,pth,3.60
2023-12-12T18:56:00,pth,3.60
2023-12-12T18:57:00,pth,2.40
2023-12-12T18:59:00,pth,3.60
2023-12-12T19:01:00,pth,8.40
2023-12-12T19:02:00,pth,7.20
2023-12-12T19:04:00,pth,14.40
2023-12-12T19:06:00,pth,13.20
2023-12-12T19:07:00,pth,7.20
2023-12-12T19:08:00,pth,7.20
2023-12-12T19:10:00,pth,14.40
2023-12-12T19:11:00,pth,6.00
2023-12-12T19:13:00,pth,14.40
2023-12-12T19:15:00,pth,14.40
2023-12-12T19:17:00,pth,13.20
2023-12-12T19:19:00,pth,14.40
2023-12-12T19:21:00,pth,13.20
2023-12-12T19:22:00,pth,7.20
2023-12-12T19:24:00,pth,14.40
2023-12-12T19:25:00,pth,14.40
2023-12-12T19:27:00,pth,7.20
2023-12-12T19:29:00,pth,14.40
2023-12-12T19:31:00,pth,13.20
2023-12-12T19:33:00,pth,14.40
2023-12-12T19:34:00,pth,7.20
2023-12-12T19:36:00,pth,14.40
2023-12-12T19:37:00,pth,6.00
2023-12-12T19:38:00,pth,7.20
2023-12-12T19:40:00,pth,14.40
2023-12-12T19:42:00,pth,14.40
2023-12-12T19:44:00,pth,13.20
2023-12-12T19:45:00,pth,7.20
2023-12-12T19:47:00,pth,15.60
2023-12-12T19:49:00,pth,15.60
2023-12-12T19:51:00,pth,9.60
2023-12-12T19:52:00,pth,7.20
2023-12-12T19:54:00,pth,10.80
2023-12-12T19:56:00,pth,12.00
2023-12-12T19:58:00,pth,8.40
2023-12-12T20:00:00,pth,3.60
2023-12-12T20:01:00,pth,2.40
2023-12-12T20:03:00,pth,2.40
2023-12-12T20:04:00,pth,1.20
2023-12-12T20:06:00,pth,3.60
2023-12-12T20:07:00,pth,1.20
2023-12-12T20:09:00,pth,3.60
2023-12-12T20:10:00,pth,1.20
2023-12-12T20:12:00,pth,2.40
2023-12-12T20:13:00,pth,2.40
2023-12-12T20:15:00,pth,2.40
2023-12-12T20:16:00,pth,2.40
2023-12-12T20:18:00,pth,3.60
2023-12-12T20:20:00,pth,3.60
2023-12-12T20:21:00,pth,1.20
2023-12-12T20:23:00,pth,4.80
2023-12-12T20:25:00,pth,2.40
2023-12-12T20:26:00,pth,2.40
2023-12-12T20:28:00,pth,2.40
2023-12-12T20:29:00,pth,1.20
2023-12-12T20:31:00,pth,2.40
2023-12-12T20:32:00,pth,2.40
2023-12-12T20:34:00,pth,2.40
2023-12-12T20:36:00,pth,3.60
2023-12-12T20:37:00,pth,1.20
2023-12-12T20:39:00,pth,4.80
2023-12-12T20:41:00,pth,3.60
2023-12-12T20:42:00,pth,1.20
2023-12-12T20:44:00,pth,3.60
2023-12-12T20:46:00,pth,2.40
2023-12-12T20:48:00,pth,2.40
2023-12-12T20:50:00,pth,2.40
2023-12-12T20:51:00,pth,2.40
2023-12-12T20:53:00,pth,2.40
2023-12-12T20:55:00,pth,3.60
2023-12-12T20:57:00,pth,3.60
2023-12-12T20:58:00,pth,1.20
2023-12-12T21:00:00,pth,3.60
2023-12-12T21:01:00,pth,1.20
2023-12-12T21:02:00,pth,1.20
2023-12-12T21:04:00,pth,3.60
2023-12-12T21:05:00,pth,1.20
2023-12-12T21:07:00,pth,3.60
2023-12-12T21:09:00,pth,2.40
2023-12-12T21:10:00,pth,1.20
2023-12-12T21:12:00,pth,3.60
2023-12-12T21:14:00,pth,2.40
2023-12-12T21:16:00,pth,3.60
2023-12-12T21:17:00,pth,1.20
2023-12-12T21:18:00,pth,1.20
2023-12-12T21:20:00,pth,2.40
2023-12-12T21:22:00,pth,2.40
2023-12-12T21:23:00,pth,1.20
2023-12-12T21:25:00,pth,2.40
2023-12-12T21:26:00,pth,2.40
2023-12-12T21:28:00,pth,2.40
2023-12-12T21:29:00,pth,1.20
2023-12-12T21:30:00,pth,2.40
2023-12-12T21:31:00,pth,1.20
2023-12-12T21:33:00,pth,3.60
2023-12-12T21:34:00,pth,1.20
2023-12-12T21:36:00,pth,2.40
2023-12-12T21:37:00,pth,1.20
2023-12-12T21:39:00,pth,3.60
2023-12-12T21:41:00,pth,2.40
2023-12-12T21:43:00,pth,3.60
2023-12-12T21:45:00,pth,2.40
2023-12-12T21:47:00,pth,3.60
2023-12-12T21:49:00,pth,2.40
2023-12-12T21:51:00,pth,2.40
2023-12-12T21:53:00,pth,2.40
2023-12-12T21:54:00,pth,1.20
2023-12-12T21:56:00,pth,3.60
2023-12-12T21:57:00,pth,1.20
2023-12-12T21:59:00,pth,3.60
2023-12-12T22:01:00,pth,3.60
2023-12-12T22:03:00,pth,3.60
2023-12-12T22:04:00,pth,2.40
2023-12-12T22:05:00,pth,3.60
2023-12-12T22:08:00,pth,3.60
2023-12-12T22:10:00,pth,2.40
2023-12-12T22:11:00,pth,1.20
2023-12-12T22:13:00,pth,3.60
2023-12-12T22:14:00,pth,1.20
2023-12-12T22:16:00,pth,2.40
2023-12-12T22:18:00,pth,3.60
2023-12-12T22:20:00,pth,2.40
2023-12-12T22:21:00,pth,2.40
2023-12-12T22:23:00,pth,2.40
2023-12-12T22:24:00,pth,1.20
2023-12-12T22:26:00,pth,3.60
2023-12-12T22:28:00,pth,2.40
2023-12-12T22:29:00,pth,1.20
2023-12-12T22:31:00,pth,2.40
2023-12-12T22:33:00,pth,3.60
2023-12-12T22:34:00,pth,1.20
2023-12-12T22:35:00,pth,1.20
2023-12-12T22:36:00,pth,1.20
2023-12-12T22:38:00,pth,2.40
2023-12-12T22:40:00,pth,2.40
2023-12-12T22:41:00,pth,1.20
2023-12-12T22:43:00,pth,3.60
2023-12-12T22:44:00,pth,1.20
2023-12-12T22:46:00,pth,2.40
2023-12-12T22:48:00,pth,3.60
2023-12-12T22:50:00,pth,2.40
2023-12-12T22:52:00,pth,2.40
2023-12-12T22:54:00,pth,2.40
2023-12-12T22:55:00,pth,1.20
2023-12-12T22:57:00,pth,2.40
2023-12-12T22:59:00,pth,3.60
2023-12-12T23:01:00,pth,2.40
2023-12-12T23:03:00,pth,3.60
2023-12-12T23:05:00,pth,3.60
